FENGYUN 1C DEB, 29760

Orbit data source: Space-Track

FENGYUN 1C DEB, 29760 is space debris in SSO originally from a launch on Mon, 10 May 1999 UTC launched from the Taiyaun Space Center, China (TSC). Fengyun 1C debris stems from the Chinese weather satellite Fengyun-1C, which was intentionally destroyed by a Chinese anti-satellite missile in 2007. This event dramatically increased the amount of space debris, with thousands of trackable fragments posing hazards to satellites and human spaceflight. The Fengyun 1C debris cloud has become a focal point in discussions about space sustainability and the need for international regulations to prevent the creation of new debris.

Loading next visibility...
Identifier
29760, 1999-025BA
Orbit
SSO
Country
Flag of CNCN / PRC
Related business
Manufacturer
Unknown
Mission
Spacecraft
Bus & Motor
Unknown
Mass
Unknown
Launch date (UTC)
1999-05-10 (27 years ago)
Launch vehicle
Unknown
Launch site
Taiyaun Space Center, China (TSC)
Object type
Payload
Rocket body
Debris
Shape & HBR
Unknown shape, 0.1 m
Radar Cross Section
Medium (>0.1 m² and <1 m²)

Expand to show TLE details & history
Last TLE update: 1 day ago

TLE from 1 day ago
0 FENGYUN 1C DEB
1 29760U 99025BA  26253.22182954  .00000311  00000-0  19024-3 0  9994
2 29760  98.7704 252.8215 0131378 127.3965 233.9251 14.08458866  9130
Epoch: 2026-09-10T05:19Z
TLE epoch observation values (Epoch: 2026-09-10T05:19:26.072Z)
Latitude
0.00006°
Longitude
-176.29978°
Altitude
924.398 km
Speed
7.361 km/s
True Right ascension
16h 51m 17s
True Declination
0° 00' 00"
Sunlit
Object was in daylight at epoch
Visualization orbit readout
Latitude
Unknown
Longitude
Unknown
Altitude
Unknown
Speed
Unknown
Apparent Right ascension
Unknown
Apparent Declination
Unknown
Sunlit
N/A
Visualization observer readout
Local Sidereal Time
08:24:34
Azimuth
Unknown
Elevation
Unknown
Doppler factor
Unknown
Orbital elements
Apogee altitude
956.944 km
Perigee altitude
766.709 km
Semi-major axis
7,239.963 km
Eccentricity
0.01314
Inclination
98.7704°
RAAN
252.8215°
Arg. of periapsis
127.3965°
True anomaly
232.72005°
Mean anomaly
233.9251°
Eccentric anomaly
233.3214°
Mean motion
3.52321 °/min
Orbital period
102.18 mins
BSTAR
0.00019024
Loading maneuver chart data...
Computing Atmospheric mass density...
Loading historical data...
Loading historical data...
Loading historical data...
Loading historical data...
Loading historical data...
Loading historical data...
Loading historical data...

Documentation

Showing up to 5 results
|